STARLINK-35476

Last updated on Mon Dec 15 2025 00:02:12 GMT+0000 (Coordinated Universal Time)

1 66825U 25280E 25348.25003472 -.01749479 00000+0 -13541-1 0 9996 2 66825 69.9947 194.5367 0003695 273.1984 32.9489 15.74602750 2997
UTC large
Height (km)
Speed (km/s)
/
Latitude / Longitude
Inclination (degrees)
Orbital Period (minutes)
Azimuth
Elevation
Range (km)
Doppler Factor

Next 0 passes for location: London (51.5072 / 0.1276)

Sorry there are no passes over London.